Voltar ao catálogo

ARIANE 5 R/B

AtivoHEO
NORAD 25990·ROCKET BODY·🇫🇷 France

Lançado Dec 10, 1999 de Guiana Space Centre

Loading…

Próximas Passagens (próximas 24 horas)

TLE

AtualizadoSource: Space-Track

Época: Sep 13, 2026, 19:50 UTC

1 25990U 99066B   26256.82702195 -.00000081  00000-0  00000-0 0  9990
2 25990  71.5036 302.9419 5895134 111.7174   0.3007  0.55304702 25849

Acompanhe ARIANE 5 R/B em tempo real com AllMySat

Download on the App Store